GFSFLT1_sfc_thetae_000.txt.gz
Theta_e
308 307 307 307 307 305 306 306 307 307 307 308 308 309 310 310 309 309 309 310 309 309 309 310 309 307 305 306 306 307 309 312
308 307 307 306 306 305 305 305 306 306 305 305 306 306 307 309 309 308 308 309 308 309 308 307 308 306 306 305 304 304 304 307
306 307 307 306 306 306 305 305 306 306 306 306 307 306 306 308 308 308 308 308 308 307 306 305 306 305 305 305 305 302 302 304
305 305 306 307 306 307 306 305 305 306 306 305 305 305 305 304 305 306 307 308 308 309 307 307 306 306 304 305 304 303 300 301
303 305 305 306 307 308 306 306 305 305 306 304 304 302 301 303 304 305 306 307 308 308 308 308 308 307 305 304 303 304 302 300
304 304 305 306 307 308 307 305 305 304 305 305 304 303 303 304 304 304 305 306 306 306 307 307 308 307 306 306 305 304 303 301
305 304 304 305 307 307 307 305 304 304 304 304 304 303 303 301 302 301 301 302 302 303 303 304 304 304 304 304 305 304 304 302
306 305 303 304 305 305 304 303 302 303 303 303 303 303 302 300 299 299 298 298 298 299 300 299 299 300 300 300 301 301 302 301
306 305 304 304 304 304 304 302 301 302 301 301 301 300 299 299 296 298 297 296 295 297 296 297 297 297 298 298 297 298 299 301
305 305 304 304 304 304 304 302 301 300 300 299 298 298 296 295 296 296 296 296 295 295 296 295 296 296 296 297 296 297 298 300
306 306 306 305 305 304 304 302 299 298 298 297 296 295 295 295 295 295 295 295 295 294 294 294 294 294 295 295 295 296 296 298
306 306 307 307 304 301 299 298 298 296 296 295 295 294 294 294 294 294 294 294 293 293 293 293 292 292 293 293 293 294 293 294
306 306 306 303 299 298 297 297 296 296 295 294 294 294 293 293 293 293 294 292 293 292 292 291 291 291 291 291 291 292 291 292
305 306 303 300 298 297 295 296 295 295 294 293 293 292 293 293 293 293 293 292 292 291 290 289 289 289 289 290 290 290 291 291
304 305 302 297 296 296 294 294 295 294 293 292 292 292 292 293 292 292 292 291 289 289 289 289 289 288 288 289 289 289 289 288
303 301 299 296 295 294 293 294 294 294 292 292 292 293 293 292 291 291 290 289 288 288 287 288 288 288 287 288 287 286 285 285
300 299 296 294 293 293 294 294 295 294 293 292 292 291 291 290 290 289 288 287 287 287 287 287 287 286 286 285 284 283 283 283
299 296 294 293 293 295 296 296 295 293 291 291 290 290 289 289 288 287 286 286 286 286 286 286 286 286 285 283 283 283 283 284
298 295 292 293 296 297 296 293 292 291 290 289 289 289 288 287 286 285 285 285 285 285 285 286 285 284 283 283 282 283 284 284

GFSFLT1_sfc_thetae_003.txt.gz
Theta_e
312 313 313 313 313 311 311 311 311 311 310 311 311 311 312 312 312 311 312 310 310 310 310 311 310 308 307 307 306 306 305 306
313 313 313 312 312 310 309 309 310 309 308 307 308 308 309 310 310 310 310 309 309 310 308 308 309 307 307 308 307 306 304 305
311 312 312 312 311 310 309 309 309 309 308 309 309 309 308 309 310 310 310 310 310 309 308 307 307 306 308 307 306 304 304 306
308 309 311 312 312 311 310 309 309 309 309 308 307 308 307 306 307 308 310 310 310 310 309 308 308 307 305 307 306 304 301 305
308 308 310 311 312 313 312 311 310 309 309 307 308 304 303 305 307 307 307 309 309 309 309 308 307 307 306 307 305 307 306 301
308 309 310 311 313 313 313 311 310 309 309 309 307 306 306 305 306 306 307 307 308 307 307 307 306 306 307 308 308 308 306 305
309 311 311 310 312 313 313 311 310 309 308 307 307 306 306 304 305 304 305 305 305 305 303 304 304 304 303 305 307 306 305 305
309 309 309 310 309 311 311 310 309 309 308 308 308 307 306 304 303 301 300 299 300 300 301 302 300 300 300 300 301 302 301 300
309 309 310 309 310 310 310 309 308 308 307 306 306 305 303 303 301 299 298 298 298 299 298 298 298 298 298 299 299 299 300 300
309 310 310 310 309 310 311 310 309 308 306 307 305 304 302 299 299 299 298 298 297 297 297 296 296 297 296 296 298 298 299 300
309 309 309 310 310 311 312 310 308 307 305 304 301 300 299 298 298 297 296 297 296 296 295 295 295 295 295 296 296 296 297 298
308 308 309 310 311 309 308 307 305 305 303 301 299 298 297 296 295 296 296 296 295 294 294 294 294 294 294 294 294 295 295 295
308 308 309 309 309 306 305 304 302 301 300 298 296 296 295 295 295 295 296 294 294 294 294 293 292 292 292 292 292 292 292 292
307 306 308 307 306 304 303 302 300 299 298 296 295 294 294 294 294 295 295 294 293 293 293 292 291 291 291 291 291 291 291 292
305 306 306 306 305 303 301 300 299 297 296 295 295 295 295 294 294 294 294 294 292 292 291 291 291 290 290 290 289 290 290 290
304 303 303 305 303 301 299 298 297 297 296 296 295 295 295 294 294 293 293 292 291 290 290 290 290 290 289 289 289 288 288 287
303 302 302 303 300 298 298 296 297 298 297 296 295 295 293 293 292 292 291 290 289 289 289 289 288 288 287 287 287 286 285 284
301 300 302 302 298 297 296 297 298 298 295 294 294 292 291 291 291 290 289 289 289 288 288 288 287 288 287 287 285 284 284 283
298 301 302 299 297 297 298 298 296 294 294 293 292 291 290 290 290 288 288 288 287 287 287 287 286 286 285 285 284 284 283 283

GFSFLT1_sfc_thetae_006.txt.gz
Theta_e
312 313 314 314 316 314 313 312 312 313 312 312 312 312 312 311 312 311 311 310 309 308 308 308 307 306 305 304 303 303 303 302
314 315 315 313 314 312 311 310 311 310 309 308 307 307 309 310 310 311 310 309 309 308 307 306 307 305 304 304 303 302 301 303
311 313 314 313 312 312 311 310 310 309 308 308 308 309 308 308 309 309 309 310 309 308 307 305 305 304 304 304 303 300 301 301
309 312 313 314 312 312 312 310 310 310 309 308 308 308 306 305 306 306 308 309 310 309 308 306 305 305 303 303 302 301 298 300
309 311 310 313 312 314 313 312 310 310 310 306 306 303 301 303 304 305 306 309 308 308 307 307 305 304 303 303 304 302 300 297
308 308 310 312 312 313 313 312 311 310 310 308 305 304 304 304 305 305 305 305 306 306 306 306 304 304 303 301 301 301 301 299
308 309 310 309 312 312 313 312 310 311 310 309 307 303 304 303 303 302 303 303 303 304 303 301 301 300 299 298 298 298 298 297
308 308 309 309 310 311 313 311 309 310 310 309 307 306 305 303 303 302 301 299 299 299 299 298 298 297 297 297 296 295 295 295
308 310 311 310 311 311 310 309 308 309 309 308 307 306 304 303 303 301 298 297 298 298 297 297 297 297 296 296 295 294 294 294
309 310 310 310 310 310 310 309 310 309 309 308 307 305 304 301 302 299 298 298 297 298 297 296 296 296 295 294 293 293 294 293
309 309 309 309 310 311 311 310 307 306 306 306 303 302 301 299 298 297 297 296 296 296 295 295 294 294 293 293 291 292 292 292
308 309 309 309 310 308 308 306 304 304 303 303 300 299 299 297 296 296 295 296 295 295 294 293 293 292 292 291 290 291 290 290
306 307 307 307 307 307 307 304 303 302 301 299 298 297 296 295 295 295 296 295 295 294 293 293 292 291 291 290 289 289 289 288
306 306 306 306 306 306 306 303 301 300 298 297 296 295 295 294 295 295 294 294 293 293 292 291 291 290 289 289 289 288 288 288
305 304 304 305 305 305 304 301 300 298 297 296 295 294 295 295 295 294 294 293 292 291 291 290 290 289 289 289 288 287 287 287
303 303 303 303 303 304 301 300 299 298 296 295 296 297 296 295 294 293 293 292 291 290 289 288 288 288 288 287 286 285 285 285
302 302 301 302 303 302 298 298 297 297 296 297 297 296 295 293 293 292 291 290 289 288 287 287 286 287 288 288 287 284 283 283
301 300 301 302 302 299 296 297 299 297 297 295 294 295 293 292 291 290 289 287 287 286 286 286 285 285 288 287 286 283 282 282
300 301 301 302 299 297 298 298 298 295 294 294 295 293 291 290 290 288 286 285 285 284 284 284 284 284 286 285 285 282 282 282

GFSFLT1_sfc_thetae_009.txt.gz
Theta_e
305 305 305 305 305 305 305 304 304 306 305 303 304 304 304 305 307 307 308 307 306 303 304 304 303 302 301 301 299 300 299 298
305 305 304 305 305 304 304 303 304 303 301 301 300 301 303 303 303 306 306 306 305 303 302 303 303 301 301 300 300 298 297 299
305 305 304 303 303 304 303 304 303 303 302 301 301 301 302 303 304 304 305 305 304 303 302 301 301 300 299 299 300 298 298 298
302 303 303 303 303 304 305 304 303 303 303 302 301 301 301 300 301 301 303 304 305 304 303 302 301 300 299 299 298 297 295 297
302 301 299 302 304 304 305 306 305 304 303 300 300 299 298 299 300 300 301 304 305 305 304 303 301 300 299 299 301 299 297 294
302 302 303 301 304 305 306 306 306 306 303 302 300 299 300 301 301 300 300 302 304 304 302 302 301 300 299 297 295 295 297 296
302 302 303 304 304 304 305 305 305 306 305 304 302 300 301 299 299 299 300 301 300 299 299 297 297 295 296 294 294 294 292 293
301 300 302 302 303 302 303 304 304 305 304 304 304 303 301 300 299 298 297 297 296 296 296 296 295 296 296 295 294 294 293 292
302 301 302 302 302 302 303 304 304 304 304 303 303 303 303 301 301 299 295 295 296 296 295 295 295 295 295 295 294 293 292 291
302 301 303 302 303 303 303 303 304 304 303 301 301 302 299 298 295 294 295 295 295 295 295 294 294 295 295 294 293 292 291 291
302 301 302 302 303 302 302 302 302 302 300 299 298 297 295 294 294 294 293 293 294 294 294 294 294 294 294 292 291 291 290 290
301 301 302 302 302 302 302 303 303 298 298 297 295 294 293 293 294 293 293 294 294 294 294 294 293 292 292 291 290 290 289 288
301 301 301 301 302 302 303 303 302 297 296 294 294 293 292 291 291 293 293 292 294 293 293 293 292 292 291 289 289 288 288 287
301 302 302 301 301 302 302 302 297 296 294 292 292 291 291 291 291 291 292 292 292 292 292 291 291 290 289 288 288 287 286 286
301 301 301 300 300 301 300 298 296 295 293 291 291 290 290 290 291 290 291 292 290 290 290 290 290 288 288 287 287 286 285 285
300 300 299 299 300 300 298 294 295 294 293 291 292 292 292 293 292 291 291 290 290 289 288 287 286 286 287 285 284 283 282 282
300 300 300 300 300 298 295 295 296 297 295 293 294 294 293 293 291 291 290 288 288 286 285 284 284 286 287 288 285 282 281 281
299 299 299 299 298 295 294 296 297 296 295 294 294 294 293 293 291 289 287 285 284 283 283 283 282 282 287 286 286 282 281 280
298 298 298 295 294 294 295 295 297 295 294 294 294 294 292 288 288 286 284 282 282 281 281 281 281 282 285 286 285 282 281 281

GFSFLT1_sfc_thetae_012.txt.gz
Theta_e
303 302 303 303 303 304 304 301 305 305 303 302 302 302 302 303 307 307 308 307 307 302 304 303 302 301 300 299 297 298 298 297
301 302 302 302 302 303 303 302 301 302 300 299 298 300 301 301 303 308 307 306 305 302 301 303 302 300 299 299 298 297 296 297
302 301 300 302 301 301 301 302 302 301 300 299 299 299 300 301 302 302 306 305 304 302 301 301 300 300 299 299 299 297 296 296
301 302 300 299 300 301 303 302 301 302 301 300 299 299 299 299 299 300 302 304 304 303 301 301 299 299 298 297 297 296 294 296
300 299 298 300 301 301 302 304 303 302 302 299 298 299 299 300 300 299 301 303 303 303 302 301 300 299 298 298 298 296 295 293
299 299 301 301 302 303 304 305 304 305 303 301 299 297 300 301 298 298 298 300 302 303 302 301 300 299 296 294 293 291 294 292
300 301 300 301 301 302 303 303 304 304 304 303 300 299 300 299 299 297 297 298 297 298 299 297 296 296 295 294 293 292 292 293
299 299 300 299 299 300 302 302 303 305 303 302 302 301 301 299 299 298 299 297 295 294 294 294 294 294 295 295 295 294 294 293
299 300 300 301 302 301 303 304 304 304 303 302 302 301 301 301 300 299 296 296 295 295 294 294 295 296 296 296 295 294 294 292
299 300 300 300 301 301 301 301 301 303 302 301 299 298 299 298 295 294 295 294 295 294 295 295 296 296 296 295 293 292 293 292
299 300 300 300 300 301 301 301 302 302 301 297 297 295 295 293 292 291 292 293 295 295 296 297 296 295 294 293 292 291 290 290
299 300 302 303 303 303 302 300 300 300 298 296 294 292 292 291 291 291 292 294 295 295 295 295 294 293 293 292 290 290 288 288
299 300 300 300 300 299 299 300 299 297 294 294 293 291 291 290 290 291 292 293 293 294 293 293 292 292 291 289 288 288 286 285
299 299 300 300 299 299 299 299 295 294 293 292 290 290 289 288 290 291 291 292 292 291 291 290 290 290 289 288 287 286 285 285
299 298 298 298 299 298 299 295 293 293 291 290 289 289 288 289 290 290 290 290 289 289 289 289 289 288 287 286 286 284 283 283
298 298 298 299 298 298 296 294 295 295 294 294 291 292 291 291 290 289 290 291 290 288 287 286 285 285 285 284 283 282 281 281
299 299 299 299 298 297 294 296 296 296 293 294 294 294 294 293 293 292 291 290 288 286 284 283 283 284 286 287 285 281 281 281
298 298 298 297 295 294 293 294 295 295 295 295 294 294 293 292 292 291 288 285 283 282 281 281 281 281 285 286 286 282 281 281
298 298 297 295 293 292 293 294 293 293 293 293 293 292 292 290 287 285 282 282 281 280 280 281 280 281 285 285 285 282 281 281

GFSFLT1_sfc_thetae_015.txt.gz
Theta_e
301 301 302 302 304 306 305 305 308 307 304 302 301 301 302 302 304 307 308 307 307 303 304 304 301 300 299 297 297 297 296 296
298 300 300 301 302 303 302 300 303 301 299 299 298 300 300 300 301 305 307 307 306 303 302 303 301 299 299 298 297 296 296 295
300 300 299 300 301 301 301 300 300 300 299 299 299 298 299 300 301 302 305 306 306 304 301 302 302 299 298 298 297 295 295 295
299 300 298 298 299 299 300 300 300 300 300 299 298 298 298 297 298 299 302 306 306 304 302 301 301 301 299 297 297 296 294 294
298 299 299 299 300 299 300 301 301 301 300 299 297 297 298 300 301 300 300 302 304 305 304 301 300 300 297 296 297 295 294 292
298 299 300 299 300 300 300 302 303 303 303 301 299 298 300 301 300 297 298 299 301 303 303 303 301 300 298 296 293 291 292 290
298 299 299 300 300 299 300 301 302 303 302 302 300 299 300 299 299 298 299 297 297 299 300 299 297 295 292 292 294 293 293 293
297 297 298 299 299 299 300 301 301 302 302 302 302 301 300 299 299 299 298 295 292 292 294 294 293 295 295 296 295 295 295 293
298 298 298 298 299 300 300 301 301 302 302 302 301 300 298 299 298 298 296 293 291 292 293 295 296 296 296 295 295 294 295 294
297 298 299 299 299 300 300 300 300 301 300 300 298 296 296 296 294 292 291 292 293 293 294 295 296 296 297 296 294 293 293 292
298 298 299 300 300 300 299 299 299 299 299 297 296 296 294 293 291 290 291 292 293 294 295 296 296 296 295 294 292 292 291 290
298 298 300 300 299 299 298 298 298 298 296 294 294 293 291 290 289 290 291 293 294 294 294 295 295 293 293 292 291 290 289 288
298 300 300 299 299 298 298 297 297 295 293 292 292 291 290 289 289 290 291 293 294 293 292 292 293 292 291 289 288 287 286 285
300 300 300 299 299 298 298 297 294 293 292 291 290 289 288 287 288 290 292 292 292 291 290 290 289 289 288 287 286 285 285 284
299 298 299 298 298 298 298 295 293 293 291 289 288 288 288 288 290 289 290 291 290 289 289 289 288 286 285 285 284 283 282 282
298 298 297 297 298 297 295 293 294 294 293 292 291 292 291 292 292 292 292 292 292 288 286 284 284 284 284 283 283 282 281 281
298 298 298 298 297 296 293 293 293 294 293 293 294 295 294 293 293 290 291 291 288 285 284 283 282 283 285 286 285 281 281 281
297 297 297 298 297 294 292 292 293 294 292 292 295 294 292 291 291 291 288 284 283 282 281 281 281 281 284 285 285 282 280 280
295 296 298 296 293 292 292 292 293 292 292 291 291 291 291 288 285 283 282 282 281 280 280 280 280 281 283 284 284 281 279 280

GFSFLT1_sfc_thetae_018.txt.gz
Theta_e
300 300 301 302 303 306 307 307 309 308 306 304 302 301 301 302 302 305 307 307 307 306 305 304 303 301 300 297 296 296 296 296
297 298 299 299 302 304 305 303 304 304 300 299 298 300 300 300 301 302 305 306 306 305 303 303 303 300 300 298 296 295 295 295
298 297 298 300 301 303 302 301 300 302 300 298 298 297 298 299 300 301 302 304 306 306 304 302 302 301 298 297 296 295 295 295
298 298 297 298 299 300 301 300 300 299 299 298 298 297 298 297 298 298 300 302 304 304 305 303 301 302 301 299 297 296 295 294
297 298 297 297 298 298 298 300 301 301 300 298 297 295 296 298 298 298 300 300 301 303 304 303 301 301 301 299 297 296 294 292
296 297 298 297 297 298 299 301 301 301 301 300 299 298 298 300 299 299 299 299 298 300 301 303 301 299 300 298 296 295 294 293
297 298 298 298 298 298 299 300 301 301 301 301 300 297 298 298 298 298 299 298 296 296 297 297 296 293 292 293 294 294 293 294
296 296 297 299 300 299 300 300 300 302 303 302 299 298 296 295 296 297 297 296 291 290 292 293 294 294 294 294 294 294 295 294
296 297 297 300 300 299 299 301 301 301 300 299 298 297 296 296 296 296 294 292 290 292 293 294 294 294 294 295 296 295 296 295
296 297 298 299 300 300 299 299 299 299 298 298 296 294 294 295 294 292 291 290 293 292 293 293 293 295 296 296 294 293 293 292
298 299 299 300 299 298 298 298 297 298 297 295 294 294 293 292 291 290 290 291 292 292 292 293 293 294 295 294 293 293 292 292
297 298 299 299 299 298 298 297 297 296 295 292 292 293 293 290 289 290 290 292 292 293 293 293 293 293 292 292 291 291 290 289
298 298 299 298 298 299 298 297 297 295 292 292 291 291 290 288 288 289 291 292 293 292 293 292 291 290 290 288 287 287 286 285
299 300 300 298 298 298 298 297 296 293 293 291 291 290 288 286 288 290 291 290 291 292 291 290 290 289 288 286 286 285 284 284
299 297 297 298 298 298 297 296 293 293 293 292 290 288 289 290 290 291 292 292 292 292 291 289 287 285 285 284 284 283 282 282
296 297 298 298 299 299 297 295 293 293 293 292 290 290 293 293 293 292 292 292 291 288 286 284 284 283 283 283 282 282 281 281
296 295 294 295 297 297 294 293 293 294 293 292 292 295 294 291 291 291 290 290 290 285 283 282 281 283 285 285 285 282 282 282
294 293 295 296 295 293 292 291 292 293 291 293 293 293 292 292 292 290 288 283 282 281 281 281 281 281 284 284 284 281 281 281
292 294 293 292 292 291 290 291 290 289 291 291 290 290 289 287 284 282 281 280 280 279 280 280 280 280 283 283 283 280 279 279